,,,PA_Meas_PMT16A,,PR_Meas_QMR101_102,,RH_Meas_QMH101,,SR_Meas_QMS101,,TA_Meas_QMH101,,GenWind,,GenWind,
date,time,status,PA,status,PR,status,RH,status,SR,status,TA,status,DirAvg,status,SpdAvg,
2009-10-10, 00:00:04,VALID,1005.88,VALID,0,VALID,92.6146,VALID,0.100563,VALID,23.9742,VALID,9,VALID,0.0160156,
2009-10-10, 00:01:04,VALID,1005.85,VALID,0,VALID,92.6528,VALID,0.100563,VALID,23.9742,VALID,284,VALID,0.699609,
2009-10-10, 00:02:04,VALID,1005.84,VALID,0,VALID,92.6222,VALID,0,VALID,23.9742,VALID,300,VALID,0.326953,
2009-10-10, 00:03:04,VALID,1005.81,VALID,0,VALID,92.462,VALID,0,VALID,24.0539,VALID,323,VALID,0.560156,
2009-10-10, 00:04:04,VALID,1005.81,VALID,0,VALID,92.401,VALID,0,VALID,24.0521,VALID,288,VALID,0.16875,
2009-10-10, 00:05:04,VALID,1005.77,VALID,0,VALID,92.3323,VALID,0,VALID,24.0521,VALID,295,VALID,0.508203,
2009-10-10, 00:06:04,VALID,1005.77,VALID,0,VALID,92.2637,VALID,0.100563,VALID,24.0716,VALID,301,VALID,0.916406,
2009-10-10, 00:07:04,VALID,1005.74,VALID,0,VALID,92.1569,VALID,0.100563,VALID,24.1105,VALID,284,VALID,0.482031,
2009-10-10, 00:08:04,VALID,1005.76,VALID,0,VALID,92.1264,VALID,0.100563,VALID,24.1105,VALID,323,VALID,0.180078,
2009-10-10, 00:09:04,VALID,1005.75,VALID,0,VALID,92.0806,VALID,0.100563,VALID,24.1105,VALID,90,VALID,0.655859,
2009-10-10, 00:10:04,VALID,1005.75,VALID,0,VALID,92.0577,VALID,0.100563,VALID,24.1318,VALID,358,VALID,0.264062,
2009-10-10, 00:11:04,VALID,1005.75,VALID,0,VALID,92.0196,VALID,0,VALID,24.1105,VALID,307,VALID,0.549609,
2009-10-10, 00:12:04,VALID,1005.73,VALID,0,VALID,91.928,VALID,0,VALID,24.13,VALID,318,VALID,0.228516,
2009-10-10, 00:13:04,VALID,1005.74,VALID,0,VALID,91.928,VALID,0,VALID,24.1318,VALID,318,VALID,0.243359,
2009-10-10, 00:14:04,VALID,1005.72,VALID,0,VALID,91.9509,VALID,0,VALID,24.1318,VALID,330,VALID,0.358203,
2009-10-10, 00:15:04,VALID,1005.72,VALID,0,VALID,91.9204,VALID,0,VALID,24.1123,VALID,33,VALID,0.146875,
2009-10-10, 00:16:04,VALID,1005.72,VALID,0,VALID,91.9585,VALID,0,VALID,24.1318,VALID,346,VALID,0.902734,
2009-10-10, 00:17:04,VALID,1005.71,VALID,0,VALID,91.9128,VALID,0,VALID,24.1123,VALID,355,VALID,0.513281,
2009-10-10, 00:18:04,VALID,1005.68,VALID,0,VALID,91.9356,VALID,0,VALID,24.1123,VALID,315,VALID,0.443359,
2009-10-10, 00:19:04,VALID,1005.72,VALID,0,VALID,91.8975,VALID,0,VALID,24.1318,VALID,356,VALID,1.02422,
2009-10-10, 00:20:04,VALID,1005.72,VALID,0,VALID,91.8517,VALID,0,VALID,24.1318,VALID,359,VALID,0.923047,
2009-10-10, 00:21:04,VALID,1005.69,VALID,0,VALID,91.8365,VALID,0,VALID,24.1726,VALID,341,VALID,0.654297,
2009-10-10, 00:22:04,VALID,1005.69,VALID,0,VALID,91.7907,VALID,0,VALID,24.13,VALID,293,VALID,0.0152344,
2009-10-10, 00:23:04,VALID,1005.68,VALID,0,VALID,91.6915,VALID,0,VALID,24.1513,VALID,281,VALID,0.861719,
2009-10-10, 00:24:04,VALID,1005.67,VALID,0,VALID,91.6,VALID,0,VALID,24.1707,VALID,351,VALID,0.458984,
2009-10-10, 00:25:04,VALID,1005.68,VALID,0,VALID,91.4703,VALID,0,VALID,24.1707,VALID,319,VALID,0.810938,
2009-10-10, 00:26:04,VALID,1005.68,VALID,0,VALID,91.3253,VALID,0,VALID,24.1902,VALID,4,VALID,1.3,
2009-10-10, 00:27:04,VALID,1005.66,VALID,0,VALID,91.1499,VALID,0,VALID,24.1902,VALID,275,VALID,1.20195,
2009-10-10, 00:28:04,VALID,1005.68,VALID,0,VALID,91.1422,VALID,0,VALID,24.1884,VALID,351,VALID,0.63125,
2009-10-10, 00:29:04,VALID,1005.68,VALID,0,VALID,91.2185,VALID,0.100563,VALID,24.2078,VALID,351,VALID,0.261328,
2009-10-10, 00:30:04,VALID,1005.71,VALID,0,VALID,91.2948,VALID,0.100563,VALID,24.2078,VALID,349,VALID,0,
2009-10-10, 00:31:04,VALID,1005.67,VALID,0,VALID,91.3253,VALID,0,VALID,24.2078,VALID,347,VALID,0.350391,
2009-10-10, 00:32:04,VALID,1005.66,VALID,0,VALID,91.333,VALID,0,VALID,24.2078,VALID,319,VALID,0.369141,
2009-10-10, 00:33:04,VALID,1005.64,VALID,0,VALID,91.1728,VALID,0,VALID,24.1689,VALID,347,VALID,0.173828,
2009-10-10, 00:34:04,VALID,1005.64,VALID,0,VALID,91.188,VALID,0,VALID,24.2097,VALID,357,VALID,0.204297,
2009-10-10, 00:35:04,VALID,1005.59,VALID,0,VALID,91.2185,VALID,0,VALID,24.1494,VALID,297,VALID,0.751172,
2009-10-10, 00:36:04,VALID,1005.6,VALID,0,VALID,91.2719,VALID,0,VALID,24.1902,VALID,221,VALID,0.438672,
2009-10-10, 00:37:04,VALID,1005.6,VALID,0,VALID,91.3406,VALID,0,VALID,24.13,VALID,241,VALID,0.397656,
2009-10-10, 00:38:04,VALID,1005.63,VALID,0,VALID,91.5084,VALID,0,VALID,24.1494,VALID,241,VALID,0.295312,
2009-10-10, 00:39:04,VALID,1005.59,VALID,0,VALID,91.5008,VALID,0,VALID,24.1513,VALID,241,VALID,0.35,
2009-10-10, 00:40:04,VALID,1005.58,VALID,0,VALID,91.4245,VALID,0,VALID,24.1494,VALID,253,VALID,0.223828,
2009-10-10, 00:41:04,VALID,1005.57,VALID,0,VALID,91.4779,VALID,0,VALID,24.13,VALID,230,VALID,0.627734,
2009-10-10, 00:42:04,VALID,1005.58,VALID,0,VALID,91.5389,VALID,0,VALID,24.13,VALID,230,VALID,0.214844,
2009-10-10, 00:43:04,VALID,1005.58,VALID,0,VALID,91.6534,VALID,0.100563,VALID,24.1105,VALID,230,VALID,0.269531,
2009-10-10, 00:44:04,VALID,1005.57,VALID,0,VALID,91.8212,VALID,0,VALID,24.091,VALID,230,VALID,0.626953,
2009-10-10, 00:45:04,VALID,1005.55,VALID,0,VALID,91.8975,VALID,0.100563,VALID,24.0521,VALID,229,VALID,0.505469,
2009-10-10, 00:46:04,VALID,1005.54,VALID,0,VALID,92.0577,VALID,0,VALID,24.0326,VALID,214,VALID,0.592188,
2009-10-10, 00:47:04,VALID,1005.53,VALID,0,VALID,92.2027,VALID,0,VALID,24.015,VALID,214,VALID,0.421875,
2009-10-10, 00:48:04,VALID,1005.51,VALID,0,VALID,92.3095,VALID,0,VALID,23.9955,VALID,215,VALID,0.540625,
2009-10-10, 00:49:04,VALID,1005.51,VALID,0,VALID,92.462,VALID,0,VALID,23.9742,VALID,215,VALID,0.325,
2009-10-10, 00:50:04,VALID,1005.51,VALID,0,VALID,92.5841,VALID,0.100563,VALID,23.9335,VALID,215,VALID,0.261719,
2009-10-10, 00:51:04,VALID,1005.48,VALID,0,VALID,92.6146,VALID,0,VALID,23.9353,VALID,215,VALID,0.00234375,
2009-10-10, 00:52:04,VALID,1005.49,VALID,0,VALID,92.6909,VALID,0.100563,VALID,23.9159,VALID,215,VALID,0.534766,
2009-10-10, 00:53:04,VALID,1005.44,VALID,0,VALID,92.7977,VALID,0,VALID,23.8964,VALID,215,VALID,0.471094,
2009-10-10, 00:54:04,VALID,1005.47,VALID,0,VALID,92.8435,VALID,0,VALID,23.8964,VALID,215,VALID,0.141406,
2009-10-10, 00:55:04,VALID,1005.44,VALID,0,VALID,92.9732,VALID,0.100563,VALID,23.8751,VALID,215,VALID,0.316016,
2009-10-10, 00:56:04,VALID,1005.44,VALID,0,VALID,93.0418,VALID,0,VALID,23.8769,VALID,215,VALID,0.250391,
2009-10-10, 00:57:04,VALID,1005.45,VALID,0,VALID,93.0495,VALID,0,VALID,23.8362,VALID,215,VALID,0,
2009-10-10, 00:58:04,VALID,1005.42,VALID,0,VALID,93.141,VALID,0,VALID,23.8593,VALID,216,VALID,0.295312,
2009-10-10, 00:59:04,VALID,1005.37,VALID,0,VALID,93.202,VALID,0,VALID,23.8787,VALID,216,VALID,0.358594,
2009-10-10, 01:00:04,VALID,1005.37,VALID,0,VALID,93.2936,VALID,0,VALID,23.8787,VALID,216,VALID,0.482031,
2009-10-10, 01:01:04,VALID,1005.37,VALID,0,VALID,93.3012,VALID,0,VALID,23.9,VALID,216,VALID,0.0347656,
2009-10-10, 01:02:04,VALID,1005.36,VALID,0,VALID,93.1791,VALID,0,VALID,23.8787,VALID,289,VALID,0.366016,
2009-10-10, 01:03:04,VALID,1005.34,VALID,0,VALID,93.0189,VALID,0,VALID,23.9,VALID,292,VALID,0.830078,
2009-10-10, 01:04:04,VALID,1005.35,VALID,0,VALID,92.9884,VALID,0,VALID,23.8982,VALID,292,VALID,0.280859,
2009-10-10, 01:05:04,VALID,1005.31,VALID,0,VALID,92.935,VALID,0,VALID,23.8982,VALID,301,VALID,0.591016,
2009-10-10, 01:06:04,VALID,1005.33,VALID,0,VALID,92.9274,VALID,0,VALID,23.8769,VALID,349,VALID,0.382813,
2009-10-10, 01:07:04,VALID,1005.31,VALID,0,VALID,92.9884,VALID,0,VALID,23.8982,VALID,350,VALID,0.251953,
2009-10-10, 01:08:04,VALID,1005.31,VALID,0,VALID,93.0723,VALID,0,VALID,23.8982,VALID,350,VALID,0.332812,
2009-10-10, 01:09:04,VALID,1005.32,VALID,0,VALID,93.1639,VALID,0,VALID,23.8982,VALID,350,VALID,0.241406,
2009-10-10, 01:10:04,VALID,1005.32,VALID,0,VALID,93.2631,VALID,0,VALID,23.9,VALID,350,VALID,0.232422,
2009-10-10, 01:11:04,VALID,1005.3,VALID,0,VALID,93.3012,VALID,0,VALID,23.8787,VALID,350,VALID,0.263281,
2009-10-10, 01:12:04,VALID,1005.3,VALID,0,VALID,93.3165,VALID,0,VALID,23.8593,VALID,350,VALID,0.107031,
2009-10-10, 01:13:04,VALID,1005.28,VALID,0,VALID,93.4156,VALID,0,VALID,23.8611,VALID,350,VALID,0,
2009-10-10, 01:14:04,VALID,1005.28,VALID,0,VALID,93.4614,VALID,0,VALID,23.8398,VALID,350,VALID,0.0378906,
2009-10-10, 01:15:04,VALID,1005.25,VALID,0,VALID,93.5301,VALID,0,VALID,23.8416,VALID,350,VALID,0,
2009-10-10, 01:16:04,VALID,1005.24,VALID,0,VALID,93.6064,VALID,0,VALID,23.8185,VALID,350,VALID,0.0621094,
2009-10-10, 01:17:04,VALID,1005.25,VALID,0,VALID,93.6216,VALID,0,VALID,23.8203,VALID,350,VALID,0.0558594,
2009-10-10, 01:18:04,VALID,1005.26,VALID,0,VALID,93.6369,VALID,0,VALID,23.7991,VALID,350,VALID,0,
2009-10-10, 01:19:04,VALID,1005.26,VALID,0,VALID,93.6598,VALID,0,VALID,23.7991,VALID,350,VALID,0,
2009-10-10, 01:20:04,VALID,1005.21,VALID,0,VALID,93.6979,VALID,0,VALID,23.8009,VALID,350,VALID,0,
2009-10-10, 01:21:04,VALID,1005.26,VALID,0,VALID,93.7055,VALID,0,VALID,23.8416,VALID,350,VALID,0.245312,
2009-10-10, 01:22:04,VALID,1005.25,VALID,0,VALID,93.6903,VALID,0,VALID,23.8009,VALID,350,VALID,0.0417969,
2009-10-10, 01:23:04,VALID,1005.26,VALID,0,VALID,93.6903,VALID,0,VALID,23.8009,VALID,350,VALID,0,
2009-10-10, 01:24:04,VALID,1005.25,VALID,0,VALID,93.675,VALID,0,VALID,23.8009,VALID,350,VALID,0,
2009-10-10, 01:25:04,VALID,1005.25,VALID,0,VALID,93.7208,VALID,0,VALID,23.7991,VALID,350,VALID,0.0523437,
2009-10-10, 01:26:04,VALID,1005.22,VALID,0,VALID,93.7589,VALID,0,VALID,23.8416,VALID,350,VALID,0.210938,
2009-10-10, 01:27:04,VALID,1005.23,VALID,0,VALID,93.7208,VALID,0,VALID,23.8009,VALID,350,VALID,0.113281,
2009-10-10, 01:28:04,VALID,1005.23,VALID,0,VALID,93.7055,VALID,0,VALID,23.8203,VALID,350,VALID,0.0015625,
2009-10-10, 01:29:04,VALID,1005.25,VALID,0,VALID,93.6674,VALID,0,VALID,23.8203,VALID,350,VALID,0.0695312,
2009-10-10, 01:30:04,VALID,1005.24,VALID,0,VALID,93.675,VALID,0,VALID,23.8203,VALID,350,VALID,0.230078,
2009-10-10, 01:31:04,VALID,1005.26,VALID,0,VALID,93.7055,VALID,0,VALID,23.8203,VALID,350,VALID,0.164453,
2009-10-10, 01:32:04,VALID,1005.24,VALID,0,VALID,93.7437,VALID,0,VALID,23.8416,VALID,350,VALID,0.176953,
2009-10-10, 01:33:04,VALID,1005.24,VALID,0,VALID,93.7589,VALID,0,VALID,23.8611,VALID,350,VALID,0.238672,
2009-10-10, 01:34:04,VALID,1005.24,VALID,0,VALID,93.8123,VALID,0,VALID,23.8203,VALID,350,VALID,0.208984,
2009-10-10, 01:35:04,VALID,1005.23,VALID,0,VALID,93.8657,VALID,0,VALID,23.8416,VALID,350,VALID,0,
2009-10-10, 01:36:04,VALID,1005.22,VALID,0,VALID,93.9191,VALID,0,VALID,23.8009,VALID,350,VALID,0,
2009-10-10, 01:37:04,VALID,1005.22,VALID,0,VALID,93.9344,VALID,0,VALID,23.8027,VALID,350,VALID,0,
2009-10-10, 01:38:04,VALID,1005.24,VALID,0,VALID,93.9878,VALID,0,VALID,23.7619,VALID,350,VALID,0,
2009-10-10, 01:39:04,VALID,1005.23,VALID,0,VALID,94.0183,VALID,0,VALID,23.7619,VALID,350,VALID,0,
2009-10-10, 01:40:04,VALID,1005.26,VALID,0,VALID,94.0031,VALID,0,VALID,23.7425,VALID,350,VALID,0,
2009-10-10, 01:41:04,VALID,1005.26,VALID,0,VALID,94.0641,VALID,0,VALID,23.723,VALID,350,VALID,0,
2009-10-10, 01:42:04,VALID,1005.27,VALID,0,VALID,94.0794,VALID,0,VALID,23.7035,VALID,350,VALID,0.119922,
2009-10-10, 01:43:04,VALID,1005.3,VALID,0,VALID,94.1328,VALID,0,VALID,23.6841,VALID,350,VALID,0,
2009-10-10, 01:44:04,VALID,1005.32,VALID,0,VALID,94.2243,VALID,0,VALID,23.6823,VALID,350,VALID,0,
2009-10-10, 01:45:04,VALID,1005.32,VALID,0,VALID,94.2548,VALID,0,VALID,23.723,VALID,350,VALID,0.341016,
2009-10-10, 01:46:04,VALID,1005.33,VALID,0,VALID,94.354,VALID,0,VALID,23.723,VALID,350,VALID,0.0863281,
2009-10-10, 01:47:04,VALID,1005.31,VALID,0,VALID,94.4074,VALID,0,VALID,23.723,VALID,350,VALID,0.192969,
2009-10-10, 01:48:04,VALID,1005.3,VALID,0,VALID,94.4303,VALID,0,VALID,23.7035,VALID,350,VALID,0.201562,
2009-10-10, 01:49:04,VALID,1005.3,VALID,0,VALID,94.4455,VALID,0,VALID,23.7035,VALID,350,VALID,0.274219,
2009-10-10, 01:50:04,VALID,1005.31,VALID,0,VALID,94.4684,VALID,0,VALID,23.6841,VALID,350,VALID,0.330078,
2009-10-10, 01:51:04,VALID,1005.33,VALID,0,VALID,94.4913,VALID,0,VALID,23.7053,VALID,350,VALID,0.362891,
2009-10-10, 01:52:04,VALID,1005.33,VALID,0,VALID,94.4989,VALID,0,VALID,23.6841,VALID,350,VALID,0.479297,
2009-10-10, 01:53:04,VALID,1005.34,VALID,0,VALID,94.5371,VALID,0,VALID,23.6841,VALID,357,VALID,0.554297,
2009-10-10, 01:54:04,VALID,1005.31,VALID,0,VALID,94.56,VALID,0,VALID,23.6646,VALID,8,VALID,0.802734,
2009-10-10, 01:55:04,VALID,1005.32,VALID,0,VALID,94.5829,VALID,0,VALID,23.6646,VALID,12,VALID,0.640234,
2009-10-10, 01:56:04,VALID,1005.31,VALID,0,VALID,94.5981,VALID,0,VALID,23.6257,VALID,45,VALID,0.835547,
2009-10-10, 01:57:04,VALID,1005.32,VALID,0,VALID,94.5829,VALID,0,VALID,23.6062,VALID,35,VALID,0.697266,
2009-10-10, 01:58:04,VALID,1005.32,VALID,0,VALID,94.5981,VALID,0,VALID,23.6062,VALID,34,VALID,0.759766,
2009-10-10, 01:59:04,VALID,1005.33,VALID,0,VALID,94.5829,VALID,0,VALID,23.6257,VALID,34,VALID,0.314453,
2009-10-10, 02:00:04,VALID,1005.33,VALID,0,VALID,94.56,VALID,0,VALID,23.6469,VALID,34,VALID,0.338672,
2009-10-10, 02:01:04,VALID,1005.36,VALID,0,VALID,94.5981,VALID,0,VALID,23.6664,VALID,34,VALID,0.457812,
2009-10-10, 02:02:04,VALID,1005.34,VALID,0,VALID,94.5981,VALID,0,VALID,23.6646,VALID,34,VALID,0.29375,
2009-10-10, 02:03:04,VALID,1005.32,VALID,0,VALID,94.5829,VALID,0,VALID,23.6859,VALID,34,VALID,0,
2009-10-10, 02:04:04,VALID,1005.35,VALID,0,VALID,94.5752,VALID,0,VALID,23.6646,VALID,34,VALID,0,
2009-10-10, 02:05:04,VALID,1005.36,VALID,0,VALID,94.5676,VALID,0,VALID,23.6646,VALID,34,VALID,0,
2009-10-10, 02:06:04,VALID,1005.36,VALID,0,VALID,94.5676,VALID,0,VALID,23.6646,VALID,34,VALID,0.392188,
2009-10-10, 02:07:04,VALID,1005.4,VALID,0,VALID,94.5142,VALID,0,VALID,23.6646,VALID,34,VALID,0.467969,
2009-10-10, 02:08:04,VALID,1005.4,VALID,0,VALID,94.5142,VALID,0,VALID,23.6646,VALID,34,VALID,0.526172,
2009-10-10, 02:09:04,VALID,1005.4,VALID,0,VALID,94.4989,VALID,0,VALID,23.6646,VALID,34,VALID,0.394141,
2009-10-10, 02:10:04,VALID,1005.42,VALID,0,VALID,94.4761,VALID,0,VALID,23.6841,VALID,34,VALID,0.232422,
2009-10-10, 02:11:04,VALID,1005.44,VALID,0,VALID,94.4303,VALID,0,VALID,23.7053,VALID,34,VALID,0.382813,
2009-10-10, 02:12:04,VALID,1005.44,VALID,0,VALID,94.4303,VALID,0,VALID,23.7035,VALID,34,VALID,0.223828,
2009-10-10, 02:13:04,VALID,1005.45,VALID,0,VALID,94.4532,VALID,0,VALID,23.723,VALID,34,VALID,0,
2009-10-10, 02:14:04,VALID,1005.46,VALID,0,VALID,94.4761,VALID,0,VALID,23.7443,VALID,34,VALID,0,
2009-10-10, 02:15:04,VALID,1005.46,VALID,0,VALID,94.4837,VALID,0,VALID,23.7425,VALID,34,VALID,0.255469,
2009-10-10, 02:16:04,VALID,1005.47,VALID,0,VALID,94.4837,VALID,0,VALID,23.7425,VALID,34,VALID,0.0390625,
2009-10-10, 02:17:04,VALID,1005.48,VALID,0,VALID,94.4913,VALID,0,VALID,23.7425,VALID,34,VALID,0.208594,
2009-10-10, 02:18:04,VALID,1005.47,VALID,0,VALID,94.4837,VALID,0,VALID,23.7425,VALID,34,VALID,0.175391,
2009-10-10, 02:19:04,VALID,1005.49,VALID,0,VALID,94.5066,VALID,0,VALID,23.7425,VALID,34,VALID,0.142969,
2009-10-10, 02:20:04,VALID,1005.51,VALID,0,VALID,94.5142,VALID,0,VALID,23.723,VALID,34,VALID,0,
2009-10-10, 02:21:04,VALID,1005.49,VALID,0,VALID,94.5295,VALID,0,VALID,23.7425,VALID,34,VALID,0,
2009-10-10, 02:22:04,VALID,1005.48,VALID,0,VALID,94.5447,VALID,0,VALID,23.7425,VALID,34,VALID,0,
2009-10-10, 02:23:04,VALID,1005.47,VALID,0,VALID,94.5447,VALID,0,VALID,23.7425,VALID,34,VALID,0,
2009-10-10, 02:24:04,VALID,1005.5,VALID,0,VALID,94.56,VALID,0,VALID,23.7425,VALID,34,VALID,0,
2009-10-10, 02:25:04,VALID,1005.48,VALID,0,VALID,94.5676,VALID,0,VALID,23.7637,VALID,34,VALID,0,
2009-10-10, 02:26:04,VALID,1005.47,VALID,0,VALID,94.5752,VALID,0,VALID,23.7212,VALID,34,VALID,0,
2009-10-10, 02:27:04,VALID,1005.46,VALID,0,VALID,94.5981,VALID,0,VALID,23.7619,VALID,34,VALID,0,
2009-10-10, 02:28:04,VALID,1005.46,VALID,0,VALID,94.6286,VALID,0,VALID,23.7601,VALID,34,VALID,0,
2009-10-10, 02:29:04,VALID,1005.46,VALID,0,VALID,94.621,VALID,0.100563,VALID,23.7389,VALID,34,VALID,0,
2009-10-10, 02:30:04,VALID,1005.45,VALID,0,VALID,94.5981,VALID,0.100563,VALID,23.7407,VALID,34,VALID,0,
2009-10-10, 02:31:04,VALID,1005.44,VALID,0,VALID,94.6134,VALID,0.100563,VALID,23.7212,VALID,33,VALID,0,
2009-10-10, 02:32:04,VALID,1005.46,VALID,0,VALID,94.6515,VALID,0.100563,VALID,23.7,VALID,33,VALID,0,
2009-10-10, 02:33:04,VALID,1005.44,VALID,0,VALID,94.6439,VALID,0.100563,VALID,23.7212,VALID,33,VALID,0,
2009-10-10, 02:34:04,VALID,1005.44,VALID,0,VALID,94.621,VALID,0,VALID,23.7017,VALID,33,VALID,0,
2009-10-10, 02:35:04,VALID,1005.44,VALID,0,VALID,94.6057,VALID,0,VALID,23.7017,VALID,33,VALID,0,
2009-10-10, 02:36:04,VALID,1005.43,VALID,0,VALID,94.5981,VALID,0,VALID,23.723,VALID,33,VALID,0,
2009-10-10, 02:37:04,VALID,1005.43,VALID,0,VALID,94.5905,VALID,0,VALID,23.7017,VALID,33,VALID,0,
2009-10-10, 02:38:04,VALID,1005.42,VALID,0,VALID,94.5981,VALID,0,VALID,23.7212,VALID,33,VALID,0,
2009-10-10, 02:39:04,VALID,1005.4,VALID,0,VALID,94.6286,VALID,0.100563,VALID,23.7194,VALID,33,VALID,0,
2009-10-10, 02:40:04,VALID,1005.4,VALID,0,VALID,94.6363,VALID,0.100563,VALID,23.7407,VALID,33,VALID,0,
2009-10-10, 02:41:04,VALID,1005.41,VALID,0,VALID,94.621,VALID,0,VALID,23.7194,VALID,33,VALID,0,
2009-10-10, 02:42:04,VALID,1005.42,VALID,0,VALID,94.6134,VALID,0.100563,VALID,23.7601,VALID,33,VALID,0,
2009-10-10, 02:43:04,VALID,1005.43,VALID,0,VALID,94.6134,VALID,0.100563,VALID,23.7796,VALID,33,VALID,0,
2009-10-10, 02:44:04,VALID,1005.41,VALID,0,VALID,94.6286,VALID,0.100563,VALID,23.7796,VALID,33,VALID,0,
2009-10-10, 02:45:04,VALID,1005.44,VALID,0,VALID,94.6363,VALID,0.100563,VALID,23.7796,VALID,33,VALID,0,
2009-10-10, 02:46:04,VALID,1005.42,VALID,0,VALID,94.6515,VALID,0.100563,VALID,23.7991,VALID,33,VALID,0,
2009-10-10, 02:47:04,VALID,1005.44,VALID,0,VALID,94.6439,VALID,0.100563,VALID,23.8185,VALID,33,VALID,0,
2009-10-10, 02:48:04,VALID,1005.42,VALID,0,VALID,94.6591,VALID,0.100563,VALID,23.838,VALID,33,VALID,0,
2009-10-10, 02:49:04,VALID,1005.42,VALID,0,VALID,94.6668,VALID,0.100563,VALID,23.8398,VALID,33,VALID,0,
2009-10-10, 02:50:04,VALID,1005.39,VALID,0,VALID,94.6363,VALID,0.100563,VALID,23.7973,VALID,33,VALID,0,
2009-10-10, 02:51:04,VALID,1005.4,VALID,0,VALID,94.6439,VALID,0,VALID,23.7991,VALID,33,VALID,0,
2009-10-10, 02:52:04,VALID,1005.39,VALID,0,VALID,94.6668,VALID,0.100563,VALID,23.7991,VALID,33,VALID,0,
2009-10-10, 02:53:04,VALID,1005.4,VALID,0,VALID,94.6668,VALID,0.100563,VALID,23.7991,VALID,33,VALID,0,
2009-10-10, 02:54:04,VALID,1005.39,VALID,0,VALID,94.6515,VALID,0.100563,VALID,23.7991,VALID,33,VALID,0,
2009-10-10, 02:55:04,VALID,1005.38,VALID,0,VALID,94.6668,VALID,0.100563,VALID,23.7991,VALID,33,VALID,0,
2009-10-10, 02:56:04,VALID,1005.38,VALID,0,VALID,94.6591,VALID,0.100563,VALID,23.7796,VALID,33,VALID,0.460938,
2009-10-10, 02:57:04,VALID,1005.39,VALID,0,VALID,94.6744,VALID,0.100563,VALID,23.7389,VALID,33,VALID,0.39375,
2009-10-10, 02:58:04,VALID,1005.39,VALID,0,VALID,94.6897,VALID,0,VALID,23.7619,VALID,33,VALID,0.209766,
2009-10-10, 02:59:04,VALID,1005.39,VALID,0,VALID,94.682,VALID,0,VALID,23.7814,VALID,33,VALID,0,
2009-10-10, 03:00:04,VALID,1005.41,VALID,0,VALID,94.7125,VALID,0,VALID,23.7407,VALID,33,VALID,0,
2009-10-10, 03:01:04,VALID,1005.39,VALID,0,VALID,94.7278,VALID,0,VALID,23.7619,VALID,33,VALID,0,
2009-10-10, 03:02:04,VALID,1005.4,VALID,0,VALID,94.7354,VALID,0,VALID,23.7619,VALID,33,VALID,0,
2009-10-10, 03:03:04,VALID,1005.4,VALID,0,VALID,94.7431,VALID,0,VALID,23.7601,VALID,33,VALID,0,
2009-10-10, 03:04:04,VALID,1005.4,VALID,0,VALID,94.7507,VALID,0,VALID,23.7619,VALID,33,VALID,0.163281,
2009-10-10, 03:05:04,VALID,1005.42,VALID,0,VALID,94.7354,VALID,0,VALID,23.7407,VALID,33,VALID,0.208594,
2009-10-10, 03:06:04,VALID,1005.42,VALID,0,VALID,94.7431,VALID,0,VALID,23.7814,VALID,33,VALID,0.404687,
2009-10-10, 03:07:04,VALID,1005.41,VALID,0,VALID,94.7354,VALID,0,VALID,23.7814,VALID,33,VALID,0.44375,
2009-10-10, 03:08:04,VALID,1005.4,VALID,0,VALID,94.7202,VALID,0,VALID,23.7814,VALID,33,VALID,0.358984,
2009-10-10, 03:09:04,VALID,1005.43,VALID,0,VALID,94.7125,VALID,0,VALID,23.7814,VALID,33,VALID,0.432031,
2009-10-10, 03:10:04,VALID,1005.45,VALID,0,VALID,94.7125,VALID,0,VALID,23.7619,VALID,32,VALID,0.426562,
2009-10-10, 03:11:04,VALID,1005.44,VALID,0,VALID,94.7202,VALID,0,VALID,23.7814,VALID,32,VALID,0.408203,
2009-10-10, 03:12:04,VALID,1005.47,VALID,0,VALID,94.7049,VALID,0,VALID,23.7601,VALID,32,VALID,0.347266,
2009-10-10, 03:13:04,VALID,1005.5,VALID,0,VALID,94.7278,VALID,0,VALID,23.7601,VALID,32,VALID,0.276172,
2009-10-10, 03:14:04,VALID,1005.51,VALID,0,VALID,94.7202,VALID,0,VALID,23.7601,VALID,32,VALID,0.288281,
2009-10-10, 03:15:04,VALID,1005.5,VALID,0,VALID,94.7507,VALID,0,VALID,23.7407,VALID,25,VALID,0.372656,
2009-10-10, 03:16:04,VALID,1005.53,VALID,0,VALID,94.7583,VALID,0,VALID,23.7425,VALID,18,VALID,0.369141,
2009-10-10, 03:17:04,VALID,1005.55,VALID,0,VALID,94.7736,VALID,0,VALID,23.7619,VALID,3,VALID,0.276953,
2009-10-10, 03:18:04,VALID,1005.56,VALID,0,VALID,94.7812,VALID,0,VALID,23.7619,VALID,3,VALID,0.189844,
2009-10-10, 03:19:04,VALID,1005.55,VALID,0,VALID,94.8346,VALID,0,VALID,23.7407,VALID,3,VALID,0,
2009-10-10, 03:20:04,VALID,1005.55,VALID,0,VALID,94.8041,VALID,0,VALID,23.7619,VALID,3,VALID,0.0335938,
2009-10-10, 03:21:04,VALID,1005.54,VALID,0,VALID,94.8499,VALID,0,VALID,23.7814,VALID,3,VALID,0.000390625,
2009-10-10, 03:22:04,VALID,1005.54,VALID,0,VALID,94.8651,VALID,0,VALID,23.7814,VALID,3,VALID,0,
2009-10-10, 03:23:04,VALID,1005.59,VALID,0,VALID,94.8728,VALID,0,VALID,23.8009,VALID,3,VALID,0.00234375,
2009-10-10, 03:24:04,VALID,1005.58,VALID,0,VALID,94.8804,VALID,0,VALID,23.7991,VALID,3,VALID,0.0957031,
2009-10-10, 03:25:04,VALID,1005.57,VALID,0,VALID,94.8804,VALID,0,VALID,23.8185,VALID,3,VALID,0.302344,
2009-10-10, 03:26:04,VALID,1005.58,VALID,0,VALID,94.8651,VALID,0,VALID,23.8203,VALID,3,VALID,0.332031,
2009-10-10, 03:27:04,VALID,1005.59,VALID,0,VALID,94.8575,VALID,0,VALID,23.8398,VALID,3,VALID,0.249609,
2009-10-10, 03:28:04,VALID,1005.61,VALID,0,VALID,94.8194,VALID,0,VALID,23.8611,VALID,3,VALID,0.2875,
2009-10-10, 03:29:04,VALID,1005.62,VALID,0,VALID,94.7965,VALID,0,VALID,23.8593,VALID,3,VALID,0.234375,
2009-10-10, 03:30:04,VALID,1005.61,VALID,0,VALID,94.7736,VALID,0,VALID,23.8805,VALID,3,VALID,0.323828,
2009-10-10, 03:31:04,VALID,1005.59,VALID,0,VALID,94.7354,VALID,0,VALID,23.8787,VALID,3,VALID,0.363672,
2009-10-10, 03:32:04,VALID,1005.61,VALID,0,VALID,94.7049,VALID,0,VALID,23.9177,VALID,3,VALID,0.161719,
2009-10-10, 03:33:04,VALID,1005.64,VALID,0,VALID,94.6668,VALID,0,VALID,23.9177,VALID,3,VALID,0,
2009-10-10, 03:34:04,VALID,1005.65,VALID,0,VALID,94.6363,VALID,0,VALID,23.9389,VALID,3,VALID,0,
2009-10-10, 03:35:04,VALID,1005.67,VALID,0,VALID,94.5752,VALID,0,VALID,23.9177,VALID,3,VALID,0.242969,
2009-10-10, 03:36:04,VALID,1005.68,VALID,0,VALID,94.5447,VALID,0,VALID,23.9371,VALID,3,VALID,0,
2009-10-10, 03:37:04,VALID,1005.69,VALID,0,VALID,94.4989,VALID,0,VALID,23.9584,VALID,3,VALID,0.129297,
2009-10-10, 03:38:04,VALID,1005.69,VALID,0,VALID,94.4379,VALID,0,VALID,23.9566,VALID,3,VALID,0.0148437,
2009-10-10, 03:39:04,VALID,1005.68,VALID,0,VALID,94.354,VALID,0,VALID,23.9973,VALID,2,VALID,0.115625,
2009-10-10, 03:40:05,VALID,1005.68,VALID,0,VALID,94.1785,VALID,0,VALID,23.9955,VALID,356,VALID,0.494141,
2009-10-10, 03:41:05,VALID,1005.69,VALID,0,VALID,93.9344,VALID,0,VALID,24.0539,VALID,356,VALID,0.300781,
2009-10-10, 03:42:05,VALID,1005.69,VALID,0,VALID,93.6903,VALID,0,VALID,24.0929,VALID,356,VALID,0.00507812,
2009-10-10, 03:43:05,VALID,1005.71,VALID,0,VALID,93.4767,VALID,0,VALID,24.1336,VALID,356,VALID,0.173828,
2009-10-10, 03:44:05,VALID,1005.74,VALID,0,VALID,93.202,VALID,0,VALID,24.1318,VALID,356,VALID,0.528906,
2009-10-10, 03:45:05,VALID,1005.75,VALID,0,VALID,92.9884,VALID,0,VALID,24.1513,VALID,356,VALID,0.0558594,
2009-10-10, 03:46:05,VALID,1005.77,VALID,0,VALID,92.8816,VALID,0,VALID,24.1707,VALID,356,VALID,0.00117188,
2009-10-10, 03:47:05,VALID,1005.78,VALID,0,VALID,92.7672,VALID,0,VALID,24.1902,VALID,356,VALID,0.217187,